DW5729 Sheepshead Bay NY US current weather conditions

sailwx.info

Wind from 070

Air temperature 18.9° C
Dewpoint 18.7° C

Last reported at 2019-Jun-20 03:01 UTC.
Time now 2019-Jun-20 03:39 UTC

Location: N 40°36' W 073°57'.
View on Google Maps.

See reports from other nearby stations

  
Tides and Currents Weather Stations Pressure Air Temp Water Temp Dewpoint Dewpoint Depression Visibility Wind Speed Wind Dir Waves Ship Positions
date/time (UTC)wind fromknots sea level pressurealtimeterstation pressurevisibilityair tempwater tempwave heightnotes
2019-Jun-20 03:01 070 18.9
2019-Jun-20 02:46 092 18.9
2019-Jun-20 02:30 079 0 gusting 5 18.3
2019-Jun-20 02:16 077 18.9
2019-Jun-20 02:01 135 18.9
2019-Jun-20 01:45 121 18.9
2019-Jun-20 01:30 115 0 gusting 5 18.9
2019-Jun-20 01:15 094 0 gusting 4 18.9
2019-Jun-20 01:01 060 18.9
2019-Jun-20 00:46 077 18.9
2019-Jun-20 00:30 074 18.9
2019-Jun-20 00:16 058 18.9
2019-Jun-20 00:01 107 18.9
2019-Jun-19 23:45 109 18.9
2019-Jun-19 23:30 119 0 gusting 3 18.9
2019-Jun-19 23:16 104 18.9
2019-Jun-19 23:00 076 18.9
2019-Jun-19 22:45 069 18.9
2019-Jun-19 22:30 067 19.4
2019-Jun-19 22:16 148 19.4
2019-Jun-19 22:00 122 0 gusting 5 18.9
2019-Jun-19 21:46 101 18.9
2019-Jun-19 21:30 105 18.9
2019-Jun-19 21:15 119 1 gusting 4 19.4
2019-Jun-19 21:00 083 19.4
2019-Jun-19 20:45 146 0 gusting 5 19.4
2019-Jun-19 20:30 086 19.4
2019-Jun-19 20:15 066 19.4
2019-Jun-19 20:00 077 1 gusting 5 19.4
2019-Jun-19 19:45 065 19.4
2019-Jun-19 19:30 072 19.4
2019-Jun-19 19:15 127 19.4
2019-Jun-19 19:00 096 20.0
2019-Jun-19 18:45 085 20.0
2019-Jun-19 18:30 098 20.6
2019-Jun-19 18:17 089 20.0
2019-Jun-19 18:01 086 19.4
2019-Jun-19 17:46 072 20.0
2019-Jun-19 17:31 153 1 gusting 6 20.0
2019-Jun-19 17:17 090 2 gusting 6 20.0
2019-Jun-19 17:01 131 2 gusting 6 20.0
2019-Jun-19 16:47 119 0 gusting 6 20.0
2019-Jun-19 16:31 101 1 gusting 6 20.0
2019-Jun-19 16:16 124 0 gusting 5 19.4
2019-Jun-19 16:01 127 3 gusting 6 18.9
2019-Jun-19 15:46 075 1 gusting 5 18.9
2019-Jun-19 15:32 110 18.9
2019-Jun-19 15:16 148 1 gusting 6 18.9
2019-Jun-19 15:01 086 18.9
2019-Jun-19 14:46 119 1 gusting 6 18.9
2019-Jun-19 14:31 121 0 gusting 6 18.9
2019-Jun-19 14:16 153 2 gusting 6 18.9
2019-Jun-19 14:01 171 1 gusting 6 18.9
2019-Jun-19 13:45 126 1 gusting 6 18.9
2019-Jun-19 13:30 130 19.4
2019-Jun-19 13:15 118 0 gusting 4 19.4
2019-Jun-19 13:01 077 0 gusting 3 19.4
2019-Jun-19 12:46 148 19.4
2019-Jun-19 12:31 111 0 gusting 2 18.9
2019-Jun-19 12:15 080 19.4
2019-Jun-19 12:00 132 18.9
2019-Jun-19 11:45 128 18.9
2019-Jun-19 11:30 128 18.9
2019-Jun-19 11:15 106 18.9
2019-Jun-19 11:01 077 18.9
2019-Jun-19 10:46 079 18.9
2019-Jun-19 10:30 349 18.9
2019-Jun-19 10:15 349 18.9
2019-Jun-19 10:00 333 18.9
2019-Jun-19 09:45 333 18.9
2019-Jun-19 09:30 333 18.9
2019-Jun-19 09:15 333 18.9
2019-Jun-19 09:00 333 18.9
2019-Jun-19 08:45 333 18.9
2019-Jun-19 08:30 333 18.9
2019-Jun-19 08:15 333 18.9
2019-Jun-19 08:00 333 18.9
2019-Jun-19 07:45 333 18.9
2019-Jun-19 07:30 328 18.9
2019-Jun-19 07:15 330 18.9
2019-Jun-19 07:00 328 18.9
2019-Jun-19 06:45 328 18.9
2019-Jun-19 06:30 328 18.9
2019-Jun-19 06:15 328 18.9
2019-Jun-19 06:00 332 18.9
2019-Jun-19 05:45 331 18.9
2019-Jun-19 05:30 001 18.9
2019-Jun-19 05:15 001 18.9
2019-Jun-19 05:00 001 18.9
2019-Jun-19 04:45 332 18.9
2019-Jun-19 04:31 028 18.9
2019-Jun-19 04:17 359 18.9
2019-Jun-19 04:02 359 19.4
2019-Jun-19 03:46 314 19.4
2019-Jun-19 03:32 025 18.9
2019-Jun-19 03:17 034 19.4
2019-Jun-19 03:01 305 0 gusting 3 19.4
2019-Jun-19 02:47 328 19.4
2019-Jun-19 02:32 326 19.4
2019-Jun-19 02:16 337 1 gusting 5 19.4
2019-Jun-19 02:03 336 19.4
2019-Jun-19 01:46 320 2 gusting 6 19.4
2019-Jun-19 01:31 138 20.0
2019-Jun-19 01:16 138 20.0
2019-Jun-19 01:01 138 20.0
2019-Jun-19 00:46 138 20.0
2019-Jun-19 00:31 138 20.0
2019-Jun-19 00:15 138 20.0
2019-Jun-19 00:01 138 20.0
2019-Jun-18 23:46 138 20.0
2019-Jun-18 23:31 141 20.0
2019-Jun-18 23:16 126 20.0
2019-Jun-18 23:01 129 20.0
2019-Jun-18 22:46 096 20.0
2019-Jun-18 22:31 094 20.0
2019-Jun-18 22:16 076 20.0
2019-Jun-18 22:02 087 20.0
2019-Jun-18 21:46 102 20.0
2019-Jun-18 21:31 116 20.0
2019-Jun-18 21:01 131 20.6
2019-Jun-18 20:46 105 20.6
2019-Jun-18 20:30 149 0 gusting 6 20.6
2019-Jun-18 20:16 171 2 gusting 7 20.6
2019-Jun-18 20:01 066 20.6
2019-Jun-18 19:46 126 2 gusting 6 20.0
2019-Jun-18 19:30 062 0 gusting 5 20.0
2019-Jun-18 19:16 050 20.0
2019-Jun-18 19:00 137 20.0
2019-Jun-18 18:45 137 1 gusting 5 20.0
2019-Jun-18 18:30 106 2 gusting 7 20.6
2019-Jun-18 18:15 139 0 gusting 5 21.1
2019-Jun-18 18:01 126 22.2
2019-Jun-18 17:45 083 22.2
2019-Jun-18 17:30 105 22.2
2019-Jun-18 17:15 100 0 gusting 4 22.2
2019-Jun-18 17:00 126 22.8
2019-Jun-18 16:45 080 2 gusting 6 23.3
2019-Jun-18 16:31 112 22.8
2019-Jun-18 16:15 136 1 gusting 6 22.8
2019-Jun-18 16:00 140 2 gusting 5 22.8
2019-Jun-18 15:45 128 0 gusting 6 22.8
2019-Jun-18 15:30 146 22.2
2019-Jun-18 15:17 154 0 gusting 5 21.7
2019-Jun-18 15:02 179 3 gusting 5 21.1
2019-Jun-18 14:47 155 0 gusting 3 21.1
2019-Jun-18 14:32 162 0 gusting 3 21.1
2019-Jun-18 14:17 197 21.1
2019-Jun-18 14:01 150 21.1
2019-Jun-18 13:46 152 20.6
2019-Jun-18 13:31 134 20.6
2019-Jun-18 13:17 136 20.6
2019-Jun-18 13:02 143 20.6
2019-Jun-18 12:46 170 20.0
2019-Jun-18 12:30 189 20.0
2019-Jun-18 12:16 140 20.0
2019-Jun-18 12:02 138 20.0
2019-Jun-18 11:46 150 20.0
2019-Jun-18 11:30 226 20.0
2019-Jun-18 11:16 226 19.4
2019-Jun-18 11:01 162 19.4
2019-Jun-18 10:46 134 0 gusting 2 19.4
2019-Jun-18 10:31 153 0 gusting 2 19.4
2019-Jun-18 10:16 152 19.4
2019-Jun-18 10:01 156 19.4
2019-Jun-18 09:46 133 19.4
2019-Jun-18 09:31 146 19.4
2019-Jun-18 09:15 119 0 gusting 2 20.0
2019-Jun-18 09:01 119 20.0
2019-Jun-18 08:45 150 20.0
2019-Jun-18 08:31 136 20.0
2019-Jun-18 08:16 096 20.0
2019-Jun-18 08:01 238 20.6
2019-Jun-18 07:46 146 20.6
2019-Jun-18 07:31 146 20.6
2019-Jun-18 07:15 147 20.0
2019-Jun-18 07:00 221 20.0
2019-Jun-18 06:45 151 20.0
2019-Jun-18 06:30 157 19.4
2019-Jun-18 06:16 157 19.4
2019-Jun-18 06:00 186 19.4
2019-Jun-18 05:45 157 19.4
2019-Jun-18 05:30 147 0 gusting 4 19.4
2019-Jun-18 05:16 149 1 gusting 3 19.4
2019-Jun-18 05:00 202 0 gusting 4 19.4
2019-Jun-18 04:45 169 0 gusting 4 19.4
2019-Jun-18 04:30 207 20.0
2019-Jun-18 04:16 180 0 gusting 6 20.0
2019-Jun-18 04:01 208 0 gusting 3 20.0
2019-Jun-18 03:46 153 20.0
2019-Jun-18 03:32 158 1 gusting 4 20.0
2019-Jun-18 03:16 224 2 gusting 5 20.0
2019-Jun-18 03:01 131 1 gusting 4 20.0